Location: Birkenwerder
(52.6919°N, 13.2774°E)
Time: 23:45:20
(UTC+00:00)

Cosmos 1570 Rocket - Pass Details

Date: 07 October 2020
Orbit: 763 x 788 km, 74.1° (Epoch: 24 October)

Event Time Altitude Azimuth Distance (km) Brightness Sun altitude
Exits shadow 03:55:49 10° 304° (WNW) 2,362 6.1 -13.4°
Reaches altitude 10° 03:55:49 10° 304° (WNW) 2,361 6.1 -13.4°
Maximum altitude 03:58:10 13° 330° (NNW) 2,171 6.1 -13.0°
Drops below altitude 10° 04:00:32 10° 356° (N) 2,364 6.6 -12.7°
Sets 04:04:28 0° 25° (NNE) 3,294 7.7 -12.1°
